Time,TemperatureF,DewpointF,PressureIn,WindDirection,WindDirectionDegrees,WindSpeedMPH,WindSpeedGustMPH,Humidity,HourlyPrecipIn,Conditions,Clouds,dailyrainin,SoftwareType,DateUTC
2013-08-02 00:08:00,80.2,73.0,30.02,South,170,5.0,8.0,78,0.00,,,0.00,weatherlink.com 1.10,2013-08-02 04:08:00,
2013-08-02 00:23:00,80.3,73.0,30.01,ESE,103,1.0,8.0,78,0.00,,,0.00,weatherlink.com 1.10,2013-08-02 04:23:00,
2013-08-02 00:38:00,80.1,73.0,30.01,SE,134,1.0,7.0,79,0.00,,,0.00,weatherlink.com 1.10,2013-08-02 04:38:00,
2013-08-02 00:53:00,79.8,74.0,30.00,ENE,66,6.0,8.0,81,0.00,,,0.00,weatherlink.com 1.10,2013-08-02 04:53:00,
2013-08-02 01:08:00,79.5,74.0,30.00,ENE,64,3.0,6.0,82,0.00,,,0.00,weatherlink.com 1.10,2013-08-02 05:08:00,
2013-08-02 01:23:00,79.2,74.0,30.00,ENE,75,4.0,6.0,84,0.00,,,0.00,weatherlink.com 1.10,2013-08-02 05:23:00,
2013-08-02 01:38:00,79.3,74.0,30.00,ESE,104,3.0,7.0,84,0.00,,,0.00,weatherlink.com 1.10,2013-08-02 05:38:00,
2013-08-02 01:53:00,79.4,74.0,30.00,North,351,5.0,8.0,83,0.00,,,0.00,weatherlink.com 1.10,2013-08-02 05:53:00,
2013-08-02 02:08:00,79.3,74.0,29.99,East,84,3.0,9.0,83,0.00,,,0.00,weatherlink.com 1.10,2013-08-02 06:08:00,
2013-08-02 02:23:00,79.2,74.0,29.99,ESE,111,4.0,8.0,84,0.00,,,0.00,weatherlink.com 1.10,2013-08-02 06:23:00,
2013-08-02 02:38:00,79.3,75.0,29.98,ESE,106,5.0,9.0,85,0.00,,,0.00,weatherlink.com 1.10,2013-08-02 06:38:00,
2013-08-02 02:53:00,79.8,75.0,29.98,East,101,8.0,11.0,85,0.00,,,0.00,weatherlink.com 1.10,2013-08-02 06:53:00,
2013-08-02 03:08:00,80.2,75.0,29.98,ESE,119,6.0,13.0,85,0.00,,,0.00,weatherlink.com 1.10,2013-08-02 07:08:00,
2013-08-02 03:23:00,80.5,76.0,29.98,ESE,108,7.0,9.0,85,0.00,,,0.00,weatherlink.com 1.10,2013-08-02 07:23:00,
2013-08-02 03:38:00,80.1,75.0,29.98,ENE,78,5.0,9.0,84,0.00,,,0.00,weatherlink.com 1.10,2013-08-02 07:38:00,
2013-08-02 03:53:00,79.1,75.0,29.98,East,84,4.0,8.0,86,0.00,,,0.00,weatherlink.com 1.10,2013-08-02 07:53:00,
2013-08-02 04:08:00,79.0,75.0,29.98,NNE,27,4.0,6.0,87,0.00,,,0.00,weatherlink.com 1.10,2013-08-02 08:08:00,
2013-08-02 04:23:00,78.9,75.0,29.98,NE,44,6.0,9.0,87,0.00,,,0.00,weatherlink.com 1.10,2013-08-02 08:23:00,
2013-08-02 04:53:00,78.6,75.0,29.97,East,84,2.0,6.0,88,0.00,,,0.00,weatherlink.com 1.10,2013-08-02 08:53:00,
2013-08-02 05:08:00,78.5,75.0,29.97,East,89,1.0,7.0,89,0.00,,,0.00,weatherlink.com 1.10,2013-08-02 09:08:00,
2013-08-02 05:23:00,78.6,75.0,29.97,SE,129,4.0,5.0,89,0.00,,,0.00,weatherlink.com 1.10,2013-08-02 09:23:00,
2013-08-02 05:38:00,78.7,75.0,29.98,ENE,77,2.0,4.0,89,0.00,,,0.00,weatherlink.com 1.10,2013-08-02 09:38:00,
2013-08-02 05:53:00,78.8,75.0,29.98,East,84,3.0,5.0,89,0.00,,,0.00,weatherlink.com 1.10,2013-08-02 09:53:00,
2013-08-02 06:08:00,79.0,76.0,29.98,ENE,68,3.0,4.0,89,0.00,,,0.00,weatherlink.com 1.10,2013-08-02 10:08:00,
2013-08-02 06:23:00,79.0,76.0,29.99,ENE,77,3.0,3.0,89,0.00,,,0.00,weatherlink.com 1.10,2013-08-02 10:23:00,
2013-08-02 06:38:00,78.7,75.0,29.99,ENE,65,2.0,5.0,89,0.00,,,0.00,weatherlink.com 1.10,2013-08-02 10:38:00,
2013-08-02 06:53:00,78.9,76.0,29.99,SE,132,1.0,4.0,89,0.00,,,0.00,weatherlink.com 1.10,2013-08-02 10:53:00,
2013-08-02 07:08:00,79.2,76.0,30.00,ESE,113,2.0,4.0,90,0.00,,,0.00,weatherlink.com 1.10,2013-08-02 11:08:00,
2013-08-02 07:23:00,79.7,76.0,30.00,ESE,110,5.0,6.0,87,0.00,,,0.00,weatherlink.com 1.10,2013-08-02 11:23:00,
2013-08-02 07:38:00,80.7,76.0,30.00,SE,131,1.0,8.0,86,0.00,,,0.00,weatherlink.com 1.10,2013-08-02 11:38:00,
2013-08-02 07:53:00,81.2,76.0,30.00,SE,135,3.0,10.0,84,0.00,,,0.00,weatherlink.com 1.10,2013-08-02 11:53:00,
2013-08-02 08:08:00,81.7,76.0,30.00,SSE,149,2.0,9.0,83,0.00,,,0.00,weatherlink.com 1.10,2013-08-02 12:08:00,
2013-08-02 08:23:00,82.1,76.0,30.00,ESE,119,6.0,11.0,82,0.00,,,0.00,weatherlink.com 1.10,2013-08-02 12:23:00,
2013-08-02 08:39:00,83.0,76.0,30.00,SE,126,5.0,8.0,80,0.00,,,0.00,weatherlink.com 1.10,2013-08-02 12:39:00,
2013-08-02 08:54:00,84.1,76.0,30.01,South,188,4.0,7.0,76,0.00,,,0.00,weatherlink.com 1.10,2013-08-02 12:54:00,
2013-08-02 09:09:00,84.3,76.0,30.01,South,190,7.0,9.0,76,0.00,,,0.00,weatherlink.com 1.10,2013-08-02 13:09:00,
2013-08-02 09:24:00,84.8,77.0,30.01,NNW,340,2.0,9.0,76,0.00,,,0.00,weatherlink.com 1.10,2013-08-02 13:24:00,
2013-08-02 09:39:00,85.5,77.0,30.02,South,172,6.0,9.0,75,0.00,,,0.00,weatherlink.com 1.10,2013-08-02 13:39:00,
2013-08-02 09:54:00,85.7,77.0,30.03,SSW,204,4.0,8.0,75,0.00,,,0.00,weatherlink.com 1.10,2013-08-02 13:54:00,
2013-08-02 10:09:00,86.3,78.0,30.03,SSW,207,3.0,6.0,75,0.00,,,0.00,weatherlink.com 1.10,2013-08-02 14:09:00,
2013-08-02 10:24:00,86.9,77.0,30.04,SSE,151,2.0,7.0,73,0.00,,,0.00,weatherlink.com 1.10,2013-08-02 14:24:00,
2013-08-02 10:39:00,87.0,77.0,30.05,WNW,303,2.0,5.0,73,0.00,,,0.00,weatherlink.com 1.10,2013-08-02 14:39:00,
2013-08-02 10:54:00,87.0,77.0,30.05,West,262,2.0,6.0,73,0.00,,,0.00,weatherlink.com 1.10,2013-08-02 14:54:00,
2013-08-02 11:09:00,86.7,78.0,30.06,SSW,193,3.0,6.0,74,0.00,,,0.00,weatherlink.com 1.10,2013-08-02 15:09:00,
2013-08-02 11:24:00,87.4,78.0,30.06,SW,219,6.0,6.0,73,0.00,,,0.00,weatherlink.com 1.10,2013-08-02 15:24:00,
2013-08-02 11:39:00,86.7,78.0,30.06,SW,222,3.0,6.0,75,0.00,,,0.00,weatherlink.com 1.10,2013-08-02 15:39:00,
2013-08-02 11:54:00,87.3,78.0,30.07,WSW,246,6.0,7.0,74,0.00,,,0.00,weatherlink.com 1.10,2013-08-02 15:54:00,
2013-08-02 12:09:00,86.9,78.0,30.06,West,277,5.0,8.0,74,0.00,,,0.00,weatherlink.com 1.10,2013-08-02 16:09:00,
2013-08-02 12:24:00,86.8,78.0,30.06,WSW,253,4.0,8.0,75,0.00,,,0.00,weatherlink.com 1.10,2013-08-02 16:24:00,
2013-08-02 12:39:00,87.3,79.0,30.06,SW,233,5.0,10.0,75,0.00,,,0.00,weatherlink.com 1.10,2013-08-02 16:39:00,
2013-08-02 12:54:00,87.8,79.0,30.05,SW,219,6.0,8.0,74,0.00,,,0.00,weatherlink.com 1.10,2013-08-02 16:54:00,
2013-08-02 13:09:00,88.1,78.0,30.05,West,278,7.0,10.0,73,0.00,,,0.00,weatherlink.com 1.10,2013-08-02 17:09:00,
2013-08-02 13:24:00,86.9,78.0,30.05,West,273,2.0,10.0,75,0.00,,,0.00,weatherlink.com 1.10,2013-08-02 17:24:00,
2013-08-02 13:39:00,86.0,78.0,30.05,West,273,2.0,8.0,77,0.00,,,0.00,weatherlink.com 1.10,2013-08-02 17:39:00,
2013-08-02 13:54:00,85.7,78.0,30.05,West,264,3.0,5.0,78,0.00,,,0.00,weatherlink.com 1.10,2013-08-02 17:54:00,
2013-08-02 14:09:00,83.2,76.0,30.05,SE,131,1.0,7.0,78,0.00,,,0.00,weatherlink.com 1.10,2013-08-02 18:09:00,
2013-08-02 14:24:00,83.4,77.0,30.05,SSE,149,1.0,3.0,80,0.00,,,0.00,weatherlink.com 1.10,2013-08-02 18:24:00,
2013-08-02 14:39:00,85.1,78.0,30.04,WNW,284,4.0,8.0,78,0.00,,,0.00,weatherlink.com 1.10,2013-08-02 18:39:00,
2013-08-02 14:54:00,86.0,77.0,30.03,West,278,4.0,7.0,75,0.00,,,0.00,weatherlink.com 1.10,2013-08-02 18:54:00,
2013-08-02 15:09:00,86.1,77.0,30.02,West,280,3.0,8.0,75,0.00,,,0.00,weatherlink.com 1.10,2013-08-02 19:09:00,
2013-08-02 15:24:00,86.7,78.0,30.02,WSW,255,8.0,8.0,74,0.00,,,0.00,weatherlink.com 1.10,2013-08-02 19:24:00,
2013-08-02 15:39:00,86.6,77.0,30.01,West,271,5.0,9.0,74,0.00,,,0.00,weatherlink.com 1.10,2013-08-02 19:39:00,
2013-08-02 15:54:00,86.3,78.0,30.01,WNW,294,7.0,8.0,75,0.00,,,0.00,weatherlink.com 1.10,2013-08-02 19:54:00,
2013-08-02 16:09:00,85.8,77.0,30.01,WNW,290,8.0,9.0,75,0.00,,,0.00,weatherlink.com 1.10,2013-08-02 20:09:00,
2013-08-02 16:24:00,86.2,77.0,30.00,West,259,5.0,8.0,75,0.00,,,0.00,weatherlink.com 1.10,2013-08-02 20:24:00,
2013-08-02 16:39:00,86.3,77.0,30.00,West,261,8.0,11.0,73,0.00,,,0.00,weatherlink.com 1.10,2013-08-02 20:39:00,
2013-08-02 16:54:00,87.0,77.0,30.00,NW,304,5.0,10.0,71,0.00,,,0.00,weatherlink.com 1.10,2013-08-02 20:54:00,
2013-08-02 17:09:00,87.6,77.0,30.00,WNW,285,4.0,9.0,71,0.00,,,0.00,weatherlink.com 1.10,2013-08-02 21:09:00,
2013-08-02 17:24:00,87.4,77.0,30.00,West,266,4.0,9.0,71,0.00,,,0.00,weatherlink.com 1.10,2013-08-02 21:24:00,
2013-08-02 17:39:00,87.5,77.0,30.00,WNW,287,4.0,10.0,71,0.00,,,0.00,weatherlink.com 1.10,2013-08-02 21:39:00,
2013-08-02 17:54:00,87.1,76.0,30.00,WSW,255,5.0,10.0,69,0.00,,,0.00,weatherlink.com 1.10,2013-08-02 21:54:00,
2013-08-02 18:09:00,87.9,77.0,29.99,West,274,6.0,9.0,69,0.00,,,0.00,weatherlink.com 1.10,2013-08-02 22:09:00,
2013-08-02 18:24:00,87.6,78.0,30.00,West,264,4.0,8.0,72,0.00,,,0.00,weatherlink.com 1.10,2013-08-02 22:24:00,
2013-08-02 18:39:00,86.8,77.0,30.00,West,263,6.0,10.0,72,0.00,,,0.00,weatherlink.com 1.10,2013-08-02 22:39:00,
2013-08-02 18:54:00,86.9,77.0,30.00,WNW,294,4.0,10.0,72,0.00,,,0.00,weatherlink.com 1.10,2013-08-02 22:54:00,
2013-08-02 19:09:00,86.8,77.0,30.00,West,264,6.0,9.0,73,0.00,,,0.00,weatherlink.com 1.10,2013-08-02 23:09:00,
2013-08-02 19:24:00,86.6,77.0,30.01,NW,314,3.0,8.0,73,0.00,,,0.00,weatherlink.com 1.10,2013-08-02 23:24:00,
2013-08-02 19:39:00,86.5,77.0,30.02,West,260,4.0,8.0,72,0.00,,,0.00,weatherlink.com 1.10,2013-08-02 23:39:00,
2013-08-02 19:54:00,86.7,75.0,30.02,WNW,294,3.0,7.0,69,0.00,,,0.00,weatherlink.com 1.10,2013-08-02 23:54:00,
2013-08-02 20:09:00,86.3,76.0,30.03,West,278,2.0,7.0,71,0.00,,,0.00,weatherlink.com 1.10,2013-08-03 00:09:00,
2013-08-02 20:24:00,85.9,76.0,30.03,WNW,303,4.0,7.0,72,0.00,,,0.00,weatherlink.com 1.10,2013-08-03 00:24:00,
2013-08-02 20:39:00,85.5,76.0,30.04,West,273,3.0,6.0,73,0.00,,,0.00,weatherlink.com 1.10,2013-08-03 00:39:00,
2013-08-02 20:54:00,85.6,76.0,30.05,WNW,290,2.0,5.0,73,0.00,,,0.00,weatherlink.com 1.10,2013-08-03 00:54:00,
2013-08-02 21:09:00,85.5,76.0,30.05,WNW,291,2.0,5.0,74,0.00,,,0.00,weatherlink.com 1.10,2013-08-03 01:09:00,
2013-08-02 21:24:00,85.3,76.0,30.06,West,271,2.0,5.0,74,0.00,,,0.00,weatherlink.com 1.10,2013-08-03 01:24:00,
2013-08-02 21:39:00,85.3,76.0,30.06,West,260,3.0,5.0,74,0.00,,,0.00,weatherlink.com 1.10,2013-08-03 01:39:00,
2013-08-02 21:55:00,85.2,77.0,30.06,West,278,2.0,5.0,75,0.00,,,0.00,weatherlink.com 1.10,2013-08-03 01:55:00,
2013-08-02 22:10:00,85.2,76.0,30.06,West,278,2.0,5.0,74,0.00,,,0.00,weatherlink.com 1.10,2013-08-03 02:10:00,
2013-08-02 22:24:00,85.2,76.0,30.07,NW,309,4.0,6.0,74,0.00,,,0.00,weatherlink.com 1.10,2013-08-03 02:24:00,
2013-08-02 22:40:00,85.2,77.0,30.07,West,259,2.0,5.0,75,0.00,,,0.00,weatherlink.com 1.10,2013-08-03 02:40:00,
2013-08-02 22:55:00,85.0,77.0,30.07,West,262,1.0,4.0,76,0.00,,,0.00,weatherlink.com 1.10,2013-08-03 02:55:00,
2013-08-02 23:09:00,85.0,77.0,30.07,WNW,294,2.0,6.0,77,0.00,,,0.00,weatherlink.com 1.10,2013-08-03 03:09:00,
2013-08-02 23:25:00,85.0,77.0,30.07,WSW,242,3.0,6.0,77,0.00,,,0.00,weatherlink.com 1.10,2013-08-03 03:25:00,
2013-08-02 23:40:00,85.0,77.0,30.06,West,269,3.0,4.0,78,0.00,,,0.00,weatherlink.com 1.10,2013-08-03 03:40:00,
2013-08-02 23:54:00,84.8,77.0,30.06,West,262,2.0,6.0,78,0.00,,,0.00,weatherlink.com 1.10,2013-08-03 03:54:00,